This demonstration page uses our WeatherBlox Daily Observations layout. Learn more.

Left ArrowRight Arrow

47.50024, -111.30081

Hourly Observations for April 26, 2022

Temp ( °F °C ) Dew Point ( °F °C ) Humidity (%) Winds ( mph kmh ) Pressure ( in mb ) Visibility ( mi km ) Precip ( " mm )
12:53 am 00:53 Clear 45 7.2 23 -5 42 42 S 10 17 29.92 1013 10 16 0.00 0.00
1:53 am 01:53 Clear 48 8.9 23 -5 37 37 S 13 20 29.89 1012 10 16 0.00 0.00
2:53 am 02:53 Clear 48 8.9 22 -5.6 36 36 S 16 26 29.88 1012 10 16 0.00 0.00
3:53 am 03:53 Clear 49 9.4 22 -5.6 35 35 SSW 16 26 29.87 1012 10 16 0.00 0.00
4:53 am 04:53 Clear 51 10.6 21 -6.1 31 31 S 21 33 29.85 1011 10 16 0.00 0.00
5:53 am 05:53 Clear 50 10 23 -5 35 35 S 16 26 29.83 1010 10 16 0.00 0.00
6:53 am 06:53 Sunny 50 10 23 -5 35 35 SSW 16 26 29.83 1010 10 16 0.00 0.00
7:53 am 07:53 Sunny 52 11.1 24 -4.4 34 34 S 15 24 29.84 1010 10 16 0.00 0.00
8:53 am 08:53 Mostly Cloudy 55 12.8 24 -4.4 30 30 SSW 15 24 29.83 1010 10 16 0.00 0.00
9:53 am 09:53 Cloudy 57 13.9 24 -4.4 28 28 SW 20 31 29.81 1010 10 16 0.00 0.00
10:53 am 10:53 Cloudy 58 14.4 25 -3.9 28 28 S 15 24 29.80 1009 10 16 0.00 0.00
11:53 am 11:53 Mostly Cloudy 61 16.1 26 -3.3 26 26 SSE 12 19 29.76 1008 10 16 0.00 0.00
12:53 pm 12:53 Mostly Sunny 64 17.8 25 -3.9 23 23 SSE 14 22 29.72 1006 10 16 0.00 0.00
1:53 pm 13:53 Mostly Cloudy 65 18.3 22 -5.6 19 19 SSW 30 48 29.67 1005 10 16 0.00 0.00
2:53 pm 14:53 Cloudy 63 17.2 23 -5 22 22 S 17 28 29.68 1005 10 16 0.00 0.00
3:53 pm 15:53 Cloudy 64 17.8 25 -3.9 23 23 SSW 15 24 29.67 1005 10 16 0.00 0.00
4:53 pm 16:53 Cloudy 61 16.1 30 -1.1 31 31 SW 14 22 29.67 1005 10 16 0.00 0.00
5:53 pm 17:53 Cloudy with Light Rain 51 10.6 36 2.2 56 56 W 38 61 29.73 1007 10 16 0.00 0.00
6:53 pm 18:53 Cloudy 53 11.7 35 1.7 51 51 WSW 18 30 29.77 1008 10 16 0.00 0.00
7:53 pm 19:53 Mostly Cloudy 51 10.6 34 1.1 52 52 SW 13 20 29.80 1009 10 16 0.00 0.00
8:53 pm 20:53 Clear 46 7.8 32 0 58 58 W 14 22 29.85 1011 10 16 0.00 0.00
9:53 pm 21:53 Mostly Clear 43 6.1 31 -0.6 63 63 WSW 15 24 29.89 1012 10 16 0.00 0.00
10:53 pm 22:53 Mostly Clear 40 4.4 30 -1.1 68 68 WSW 13 20 29.92 1013 10 16 0.00 0.00
11:53 pm 23:53 Partly Cloudy 39 3.9 28 -2.2 65 65 SW 15 24 29.93 1013 10 16 0.00 0.00

Powered by AerisWeather